Hourly Data Report for June 23, 2020

TRENTON A
ONTARIO
Current Station Operator: DND

44°07'00.000" N
77°32'00.000" W
86.30 m
6158875
71621
YTR

Download Data

Hourly Data (June 2020)
Hourly Data Report for June 23, 2020
TIME
LST
Temp Definition
°C
Dew Point Definition
°C
Rel Hum Definition
%
Precip. Amount Definition
mm

Wind Dir Definition
10's deg

Wind Spd Definition
km/h
Visibility Definition
km
Stn Press Definition
kPa
Hmdx Definition


Wind Chill Definition


Weather Definition


00:00 22.4 20.6 90     0 19.3 99.85 30   Cloudy
01:00 23.0 20.8 87   25 8 11.3 99.79 31   Cloudy
02:00 22.3 21.0 92     0 19.3 99.71 31   Cloudy
03:00 21.2 20.9 98   5 4 11.3 99.68 30   Cloudy
04:00 21.6 20.9 96   17 8 11.3 99.64 30   Mostly Cloudy
05:00 21.6 20.5 93     0 19.3 99.64 30   Mainly Clear
06:00 22.4 20.9 91   19 11 24.1 99.62 31   Mostly Cloudy
07:00 22.6 20.3 87   21 13 24.1 99.59 30   Cloudy
08:00 22.7 20.5 87   20 17 24.1 99.55 31   Mostly Cloudy
09:00 23.8 20.3 81   22 13 24.1 99.51 32   Mostly Cloudy
10:00 24.8 19.6 73   21 13 24.1 99.49 32   Mostly Cloudy
11:00 26.7 20.0 67   19 17 24.1 99.43 34   Mainly Clear
12:00 27.3 20.1 65   19 17 24.1 99.37 35   Mostly Cloudy
13:00 27.2 20.2 66   16 13 24.1 99.27 35   Mostly Cloudy
14:00 26.5 20.3 69   15 15 24.1 99.20 34   Cloudy
15:00 24.3 21.9 86   16 4 24.1 99.18 34   Rain Showers
16:00 22.9 21.5 92   19 5 16.1 99.16 32   Rain Showers
17:00 23.4 22.0 92   11 5 16.1 99.05 33   Thunderstorms
18:00 23.0 21.2 90   19 13 4.8 99.00 32   Thunderstorms,Rain Showers
19:00 22.6 21.3 92   22 15 19.3 98.99 31   Mostly Cloudy
20:00 21.7 20.3 92   21 15 24.1 99.04 30   Cloudy
21:00 21.4 20.1 92   21 11 24.1 99.05 29   Cloudy
22:00 21.3 19.9 92   20 13 24.1 99.02 29   Mainly Clear
23:00 21.4 18.7 85   22 24 24.1 98.98 28   Mainly Clear

Notes on Data Quality.

Legend

  • E = Estimated
  • M = Missing
  • NA = Not Available*
  • [empty] = Indicates an unobserved value
Date modified: